Regional Weather Roundup
Issued by NWS

Home | Current Version | Previous Version | Graphics & Text | Print | Product List | Glossary On
Versions: 1 2 3 4 5 6 7 8 9 10 11 12 13 14 15 16 17 18 19 20 21 22 23 24 25 26 27
000
ASUS45 KTFX 160610
RWRMT
MONTANA REGIONAL WEATHER ROUNDUP
NATIONAL WEATHER SERVICE GREAT FALLS MT
1200 AM MDT WED AUG 16 2017

NOTE: "FAIR" INDICATES FEW OR NO CLOUDS BELOW 12000 FEET WITH NO
SIGNIFICANT WEATHER AND/OR OBSTRUCTIONS TO VISIBILITY.

MTZ001>007-043-160700-
WEST OF THE DIVIDE

CITY           SKY/WX    TMP DP  RH WIND       PRES   REMARKS
KALISPELL      CLEAR     53  41  63 CALM      29.91R
MISSOULA       CLEAR     57  34  41 CALM      29.95R
BUTTE          MOCLDY    55  30  38 SE8       30.06R
MULLAN PASS    CLEAR     55  27  34 NW5       30.08R
ANACONDA         N/A     55  30  38 SW6       30.03R
DEER LODGE       N/A     57  36  44 CALM      30.03R
EUREKA           N/A     61  37  41 MISG      29.90S
HAMILTON         N/A     55  43  62 CALM      29.97R
LIBBY            N/A     57  37  47 S5        29.91R
RONAN            N/A     51  42  71 NE3       29.98R
$$

MTZ008-052>055-160700-
SOUTHWEST MONTANA

CITY           SKY/WX    TMP DP  RH WIND       PRES   REMARKS
BOZEMAN        PTCLDY    53  43  68 E5        29.98R
DILLON         CLOUDY    58  38  47 S5        30.02R
W YELLOWSTONE  CLEAR     41  39  93 CALM      30.14S
ENNIS          CLOUDY    57  43  58 S10       30.08R
THREE FORKS      N/A     56  39  52 CALM      29.97R
$$

MTZ009-010-012-014-046-048-049-054-160700-
EAST SLOPES AND CENTRAL MONTANA

CITY           SKY/WX    TMP DP  RH WIND       PRES   REMARKS
CUT BANK       PTCLDY    55  36  48 N6        29.94R
GREAT FALLS    PTCLDY    60  30  32 NE9       29.92S
MALMSTROM AFB  CLOUDY    61  31  31 SE5       29.92R
HELENA         PTCLDY    62  33  33 CALM      29.96R
AUGUSTA          N/A     54  28  36 N12       29.98R
BOWMANS CRNR     N/A     59  29  31 N10       29.94R
CHOTEAU          N/A     59  34  38 S6        29.97R
FAIRFIELD        N/A     64  31  28 NE10      29.94R
POWER            N/A     53  32  44 E6        29.93R
RAYNESFORD       N/A     61  35  38 E10       29.94S
ULM              N/A     54  29  38 SE5       29.92R
$$

MTZ011-013-016-021-045-047-050-051-160700-
NORTH CENTRAL MONTANA

CITY           SKY/WX    TMP DP  RH WIND       PRES   REMARKS
HAVRE          CLEAR     63  38  39 E5        29.88S
LEWISTOWN      CLEAR     57  41  55 SE8       29.96S
N BAR RANCH      N/A     52  41  66 W3        30.02S
CHINOOK          N/A     61  41  48 CALM      29.89S
DENTON           N/A     63  34  34 CALM      29.90R
GEYSER           N/A     55  35  46 W5        29.95S
GRASS RANGE      N/A     57  40  53 CALM      29.93S
JUDITH GAP       N/A     61  41  47 E14       29.98S
WINIFRED         N/A     56  38  49 E12       29.93R
$$

MTZ017>020-022>027-061-062-160700-
NORTHEAST MONTANA

CITY           SKY/WX    TMP DP  RH WIND       PRES   REMARKS
GLASGOW        CLEAR     63  39  41 E13       29.89S
JORDAN           N/A     54  39  57 CALM      29.90S
SIDNEY         CLEAR     59  55  87 W5        29.89F
WOLF POINT     CLEAR     61  54  77 E3        29.89F
MALTA          PTCLDY    54  46  76 E3        29.90S
PLENTYWOOD       N/A     61  48  63 NE9       29.91S
POPLAR           N/A     61  55  82 CALM      29.90S
$$

MTZ028>42-056>058-160700-
SOUTHCENTRAL AND SOUTHEAST MONTANA

CITY           SKY/WX    TMP DP  RH WIND       PRES   REMARKS
BAKER          CLEAR     53  51  93 SE5       29.94R FOG
BILLINGS       CLEAR     68  42  38 S3        29.93S
LIVINGSTON     CLEAR     54  40  59 S3        29.98R
MILES CITY     CLEAR     62  44  51 SE6       29.91R
BIG TIMBER     CLEAR     57  37  47 SW7       29.99S
FORSYTH          N/A     64  46  52 CALM      29.90R
HARLOWTON        N/A     59  39  47 MISG      29.98R
LAUREL           N/A     59  41  51 CALM      29.92F
$$

REGIONAL REPORTS...DAKOTAS

CITY           SKY/WX    TMP DP  RH WIND       PRES   REMARKS
WILLISTON      CLEAR     61  58  90 CALM      29.89S
MINOT          MOCLDY    57  56  96 CALM      29.88R FOG
DICKINSON      CLOUDY    60  60 100 N3        29.91R
BEACH          FOG       54  54 100 S5        29.96S VSB 1/4
CROSBY           N/A     55  57 100 NW7       29.91S
TIOGA            N/A     55  55 100 CALM      29.92R
WATFORD CITY     N/A     55  55 100 CALM      29.89S
BISMARCK       CLOUDY    65  62  90 NW7       29.86R
GRAND FORKS    LGT RAIN  69  62  78 SE7       29.88S
FARGO          CLOUDY    68  60  75 SE7       29.87S
BUFFALO SD       N/A     59  55  87 NE8       29.90R
RAPID CITY     CLOUDY    62  55  77 N10       29.94R
$$

REGIONAL REPORTS...WYOMING/IDAHO/WASHINGTON

CITY           SKY/WX    TMP DP  RH WIND       PRES   REMARKS
GILLETTE       CLOUDY    50  46  86 W6        30.01R
SHERIDAN       CLEAR     51  46  83 CALM      29.98R
BUFFALO WY     CLEAR     53  41  63 W8        30.04R
CODY           CLEAR     59  45  59 SW9       30.04S
YELLOWSTONE LA   N/A     39  37  92 NW3       30.22R
IDAHO FALLS    CLEAR     52  49  89 N5        30.02S
SALMON         CLEAR     58  40  51 CALM      29.98R
BOISE          CLEAR     68  39  34 SE7       29.89R
SPOKANE        CLEAR     66  37  34 SW8       29.91S
$$

REGIONAL REPORTS...ALBERTA

CITY           SKY/WX    TMP DP  RH WIND       PRES   REMARKS
EDMONTON       PTCLDY    54  45  71 W5        29.84S
CALGARY        MOCLDY    59  41  51 SE2       29.93R
LETHBRIDGE     CLEAR     50  39  66 CALM      29.91R
MEDICINE HAT   CLOUDY    57  43  58 CALM      29.89R
$$

REGIONAL REPORTS...SASKATCHEWAN

CITY           SKY/WX    TMP DP  RH WIND       PRES   REMARKS
SWIFT CURRENT  CLEAR     52  39  62 S8        29.91R
REGINA         CLEAR     54  46  76 S3        29.89S
SASKATOON      CLEAR     50  48  93 SW9       29.84S
$$




USA.gov is the U.S. government's official web portal to all federal, state and local government web resources and services.